Location: Zilina
(49.2170°N, 18.7330°E)
Time: 01:55:24
(UTC+02:00)

ISS - Pass Details

Date: 27 March 2019
Orbit: 408 x 410 km, 51.6° (Epoch: 24 April)

Event Time Altitude Azimuth Distance (km) Brightness Sun altitude
Rises 20:09:41 0° 273° (W) 2,336 1.1 -19.7°
Reaches altitude 10° 20:11:48 10° 278° (W) 1,474 0.0 -20.0°
Maximum altitude 20:15:03 54° 357° (N) 506 -3.3 -20.4°
Enters shadow 20:15:16 52° 15° (NNE) 514 -3.3 -20.5°
